Time,TemperatureF,DewpointF,PressureIn,WindDirection,WindDirectionDegrees,WindSpeedMPH,WindSpeedGustMPH,Humidity,HourlyPrecipIn,Conditions,Clouds,dailyrainin,SolarRadiationWatts/m^2,SoftwareType,DateUTC
2013-07-26 00:02:00,55.0,46.0,-100.00,NNE,21,9.0,22.0,71,0.00,,,0.00,0.000000,,2013-07-26 06:02:00,
2013-07-26 00:12:00,55.0,46.0,-100.00,NNE,21,9.0,22.0,71,0.00,,,0.00,0.000000,,2013-07-26 06:12:00,
2013-07-26 00:22:00,55.0,46.0,-100.00,NNE,21,9.0,22.0,71,0.00,,,0.00,0.000000,,2013-07-26 06:22:00,
2013-07-26 00:33:00,55.0,46.0,-100.00,NNE,21,9.0,22.0,71,0.00,,,0.00,0.000000,,2013-07-26 06:33:00,
2013-07-26 01:02:00,51.0,44.0,-100.00,NNW,334,8.0,15.0,78,0.00,,,0.00,0.000000,,2013-07-26 07:02:00,
2013-07-26 01:12:00,51.0,44.0,-100.00,NNW,334,8.0,15.0,78,0.00,,,0.00,0.000000,,2013-07-26 07:12:00,
2013-07-26 01:22:00,51.0,44.0,-100.00,NNW,334,8.0,15.0,78,0.00,,,0.00,0.000000,,2013-07-26 07:22:00,
2013-07-26 01:32:00,51.0,44.0,-100.00,NNW,334,8.0,15.0,78,0.00,,,0.00,0.000000,,2013-07-26 07:32:00,
2013-07-26 02:02:00,52.0,45.0,-100.00,North,9,11.0,16.0,77,0.00,,,0.00,0.000000,,2013-07-26 08:02:00,
2013-07-26 02:12:00,52.0,45.0,-100.00,North,9,11.0,16.0,77,0.00,,,0.00,0.000000,,2013-07-26 08:12:00,
2013-07-26 02:22:00,52.0,45.0,-100.00,North,9,11.0,16.0,77,0.00,,,0.00,0.000000,,2013-07-26 08:22:00,
2013-07-26 02:32:00,52.0,45.0,-100.00,North,9,11.0,16.0,77,0.00,,,0.00,0.000000,,2013-07-26 08:32:00,
2013-07-26 03:02:00,51.0,45.0,-100.00,NNE,15,9.0,15.0,80,0.00,,,0.00,0.000000,,2013-07-26 09:02:00,
2013-07-26 03:12:00,51.0,45.0,-100.00,NNE,15,9.0,15.0,80,0.00,,,0.00,0.000000,,2013-07-26 09:12:00,
2013-07-26 03:22:00,51.0,45.0,-100.00,NNE,15,9.0,15.0,80,0.00,,,0.00,0.000000,,2013-07-26 09:22:00,
2013-07-26 03:32:00,51.0,45.0,-100.00,NNE,15,9.0,15.0,80,0.00,,,0.00,0.000000,,2013-07-26 09:32:00,
2013-07-26 04:02:00,49.0,44.0,-100.00,North,6,7.0,13.0,83,0.00,,,0.00,0.000000,,2013-07-26 10:02:00,
2013-07-26 04:12:00,49.0,44.0,-100.00,North,6,7.0,13.0,83,0.00,,,0.00,0.000000,,2013-07-26 10:12:00,
2013-07-26 04:22:00,49.0,44.0,-100.00,North,6,7.0,13.0,83,0.00,,,0.00,0.000000,,2013-07-26 10:22:00,
2013-07-26 04:33:00,49.0,44.0,-100.00,North,6,7.0,13.0,83,0.00,,,0.00,0.000000,,2013-07-26 10:33:00,
2013-07-26 05:02:00,47.0,42.0,-100.00,North,355,7.0,14.0,83,0.00,,,0.00,0.000000,,2013-07-26 11:02:00,
2013-07-26 05:12:00,47.0,42.0,-100.00,North,355,7.0,14.0,83,0.00,,,0.00,0.000000,,2013-07-26 11:12:00,
2013-07-26 05:22:00,47.0,42.0,-100.00,North,355,7.0,14.0,83,0.00,,,0.00,0.000000,,2013-07-26 11:22:00,
2013-07-26 05:32:00,47.0,42.0,-100.00,North,355,7.0,14.0,83,0.00,,,0.00,0.000000,,2013-07-26 11:32:00,
2013-07-26 06:02:00,46.0,42.0,-100.00,North,357,6.0,12.0,87,0.00,,,0.00,0.000000,,2013-07-26 12:02:00,
2013-07-26 06:12:00,46.0,42.0,-100.00,North,357,6.0,12.0,87,0.00,,,0.00,0.000000,,2013-07-26 12:12:00,
2013-07-26 06:22:00,46.0,42.0,-100.00,North,357,6.0,12.0,87,0.00,,,0.00,0.000000,,2013-07-26 12:22:00,
2013-07-26 06:33:00,46.0,42.0,-100.00,North,357,6.0,12.0,87,0.00,,,0.00,0.000000,,2013-07-26 12:33:00,
2013-07-26 07:02:00,46.0,42.0,-100.00,NNE,14,7.0,10.0,86,0.00,,,0.00,7.000000,,2013-07-26 13:02:00,
2013-07-26 07:12:00,46.0,42.0,-100.00,NNE,14,7.0,10.0,86,0.00,,,0.00,7.000000,,2013-07-26 13:12:00,
2013-07-26 07:22:00,46.0,42.0,-100.00,NNE,14,7.0,10.0,86,0.00,,,0.00,7.000000,,2013-07-26 13:22:00,
2013-07-26 07:32:00,46.0,42.0,-100.00,NNE,14,7.0,10.0,86,0.00,,,0.00,7.000000,,2013-07-26 13:32:00,
2013-07-26 08:02:00,54.0,47.0,-100.00,NNW,335,3.0,9.0,76,0.00,,,0.00,78.000000,,2013-07-26 14:02:00,
2013-07-26 08:12:00,54.0,47.0,-100.00,NNW,335,3.0,9.0,76,0.00,,,0.00,78.000000,,2013-07-26 14:12:00,
2013-07-26 08:22:00,54.0,47.0,-100.00,NNW,335,3.0,9.0,76,0.00,,,0.00,78.000000,,2013-07-26 14:22:00,
2013-07-26 08:32:00,54.0,47.0,-100.00,NNW,335,3.0,9.0,76,0.00,,,0.00,78.000000,,2013-07-26 14:32:00,
2013-07-26 09:02:00,63.0,47.0,-100.00,South,175,6.0,9.0,56,0.00,,,0.00,266.000000,,2013-07-26 15:02:00,
2013-07-26 09:12:00,63.0,47.0,-100.00,South,175,6.0,9.0,56,0.00,,,0.00,266.000000,,2013-07-26 15:12:00,
2013-07-26 09:22:00,63.0,47.0,-100.00,South,175,6.0,9.0,56,0.00,,,0.00,266.000000,,2013-07-26 15:22:00,
2013-07-26 09:32:00,63.0,47.0,-100.00,South,175,6.0,9.0,56,0.00,,,0.00,266.000000,,2013-07-26 15:32:00,
2013-07-26 10:02:00,68.0,47.0,-100.00,South,177,6.0,11.0,47,0.00,,,0.00,465.000000,,2013-07-26 16:02:00,
2013-07-26 10:14:00,68.0,47.0,-100.00,South,177,6.0,11.0,47,0.00,,,0.00,465.000000,,2013-07-26 16:14:00,
2013-07-26 10:22:00,68.0,47.0,-100.00,South,177,6.0,11.0,47,0.00,,,0.00,465.000000,,2013-07-26 16:22:00,
2013-07-26 10:32:00,68.0,47.0,-100.00,South,177,6.0,11.0,47,0.00,,,0.00,465.000000,,2013-07-26 16:32:00,
2013-07-26 11:02:00,71.0,46.0,-100.00,SSE,154,8.0,13.0,41,0.00,,,0.00,661.000000,,2013-07-26 17:02:00,
2013-07-26 11:12:00,71.0,46.0,-100.00,SSE,154,8.0,13.0,41,0.00,,,0.00,661.000000,,2013-07-26 17:12:00,
2013-07-26 11:22:00,71.0,46.0,-100.00,SSE,154,8.0,13.0,41,0.00,,,0.00,661.000000,,2013-07-26 17:22:00,
2013-07-26 11:33:00,71.0,46.0,-100.00,SSE,154,8.0,13.0,41,0.00,,,0.00,661.000000,,2013-07-26 17:33:00,
2013-07-26 12:33:00,75.0,46.0,-100.00,SSE,152,8.0,17.0,36,0.00,,,0.00,855.000000,,2013-07-26 18:33:00,
2013-07-26 13:02:00,68.0,49.0,-100.00,SW,235,7.0,13.0,50,0.00,,,0.00,216.000000,,2013-07-26 19:02:00,
2013-07-26 13:12:00,68.0,49.0,-100.00,SW,235,7.0,13.0,50,0.00,,,0.00,216.000000,,2013-07-26 19:12:00,
2013-07-26 13:22:00,68.0,49.0,-100.00,SW,235,7.0,13.0,50,0.00,,,0.00,216.000000,,2013-07-26 19:22:00,
2013-07-26 13:32:00,68.0,49.0,-100.00,SW,235,7.0,13.0,50,0.00,,,0.00,216.000000,,2013-07-26 19:32:00,
2013-07-26 14:02:00,72.0,44.0,-100.00,ENE,75,6.0,16.0,37,0.00,,,0.00,359.000000,,2013-07-26 20:02:00,
2013-07-26 14:12:00,72.0,44.0,-100.00,ENE,75,6.0,16.0,37,0.00,,,0.00,359.000000,,2013-07-26 20:12:00,
2013-07-26 14:22:00,72.0,44.0,-100.00,ENE,75,6.0,16.0,37,0.00,,,0.00,359.000000,,2013-07-26 20:22:00,
2013-07-26 14:32:00,72.0,44.0,-100.00,ENE,75,6.0,16.0,37,0.00,,,0.00,359.000000,,2013-07-26 20:32:00,
2013-07-26 15:02:00,69.0,45.0,-100.00,WSW,250,3.0,9.0,42,0.00,,,0.00,284.000000,,2013-07-26 21:02:00,
2013-07-26 15:12:00,69.0,45.0,-100.00,WSW,250,3.0,9.0,42,0.00,,,0.00,284.000000,,2013-07-26 21:12:00,
2013-07-26 15:22:00,69.0,45.0,-100.00,WSW,250,3.0,9.0,42,0.00,,,0.00,284.000000,,2013-07-26 21:22:00,
2013-07-26 15:32:00,69.0,45.0,-100.00,WSW,250,3.0,9.0,42,0.00,,,0.00,284.000000,,2013-07-26 21:32:00,
2013-07-26 16:02:00,77.0,42.0,-100.00,ESE,123,6.0,14.0,29,0.00,,,0.00,879.000000,,2013-07-26 22:02:00,
2013-07-26 16:12:00,77.0,42.0,-100.00,ESE,123,6.0,14.0,29,0.00,,,0.00,879.000000,,2013-07-26 22:12:00,
2013-07-26 16:22:00,77.0,42.0,-100.00,ESE,123,6.0,14.0,29,0.00,,,0.00,879.000000,,2013-07-26 22:22:00,
2013-07-26 16:33:00,77.0,42.0,-100.00,ESE,123,6.0,14.0,29,0.00,,,0.00,879.000000,,2013-07-26 22:33:00,
2013-07-26 17:02:00,78.0,42.0,-100.00,NNE,14,8.0,22.0,28,0.00,,,0.00,596.000000,,2013-07-26 23:02:00,
2013-07-26 17:12:00,78.0,42.0,-100.00,NNE,14,8.0,22.0,28,0.00,,,0.00,596.000000,,2013-07-26 23:12:00,
2013-07-26 17:22:00,78.0,42.0,-100.00,NNE,14,8.0,22.0,28,0.00,,,0.00,596.000000,,2013-07-26 23:22:00,
2013-07-26 17:32:00,78.0,42.0,-100.00,NNE,14,8.0,22.0,28,0.00,,,0.00,596.000000,,2013-07-26 23:32:00,
2013-07-26 18:02:00,75.0,45.0,-100.00,SW,232,12.0,18.0,34,0.00,,,0.00,221.000000,,2013-07-27 00:02:00,
2013-07-26 18:12:00,75.0,45.0,-100.00,SW,232,12.0,18.0,34,0.00,,,0.00,221.000000,,2013-07-27 00:12:00,
2013-07-26 18:22:00,75.0,45.0,-100.00,SW,232,12.0,18.0,34,0.00,,,0.00,221.000000,,2013-07-27 00:22:00,
2013-07-26 18:32:00,75.0,45.0,-100.00,SW,232,12.0,18.0,34,0.00,,,0.00,221.000000,,2013-07-27 00:32:00,
2013-07-26 19:02:00,72.0,48.0,-100.00,WSW,238,9.0,15.0,42,0.00,,,0.00,186.000000,,2013-07-27 01:02:00,
2013-07-26 19:12:00,72.0,48.0,-100.00,WSW,238,9.0,15.0,42,0.00,,,0.00,186.000000,,2013-07-27 01:12:00,
2013-07-26 19:22:00,72.0,48.0,-100.00,WSW,238,9.0,15.0,42,0.00,,,0.00,186.000000,,2013-07-27 01:22:00,
2013-07-26 19:32:00,72.0,48.0,-100.00,WSW,238,9.0,15.0,42,0.00,,,0.00,186.000000,,2013-07-27 01:32:00,
2013-07-26 20:02:00,66.0,45.0,-100.00,SSW,203,11.0,17.0,46,0.00,,,0.00,65.000000,,2013-07-27 02:02:00,
2013-07-26 20:12:00,66.0,45.0,-100.00,SSW,203,11.0,17.0,46,0.00,,,0.00,65.000000,,2013-07-27 02:12:00,
2013-07-26 20:22:00,66.0,45.0,-100.00,SSW,203,11.0,17.0,46,0.00,,,0.00,65.000000,,2013-07-27 02:22:00,
2013-07-26 20:32:00,66.0,45.0,-100.00,SSW,203,11.0,17.0,46,0.00,,,0.00,65.000000,,2013-07-27 02:32:00,
2013-07-26 21:03:00,61.0,44.0,-100.00,SE,137,5.0,14.0,53,0.00,,,0.00,11.000000,,2013-07-27 03:03:00,
2013-07-26 21:12:00,61.0,44.0,-100.00,SE,137,5.0,14.0,53,0.00,,,0.00,11.000000,,2013-07-27 03:12:00,
2013-07-26 21:22:00,61.0,44.0,-100.00,SE,137,5.0,14.0,53,0.00,,,0.00,11.000000,,2013-07-27 03:22:00,
2013-07-26 21:33:00,61.0,44.0,-100.00,SE,137,5.0,14.0,53,0.00,,,0.00,11.000000,,2013-07-27 03:33:00,
2013-07-26 22:02:00,55.0,43.0,-100.00,NNW,339,3.0,6.0,64,0.00,,,0.00,0.000000,,2013-07-27 04:02:00,
2013-07-26 22:12:00,55.0,43.0,-100.00,NNW,339,3.0,6.0,64,0.00,,,0.00,0.000000,,2013-07-27 04:12:00,
2013-07-26 22:22:00,55.0,43.0,-100.00,NNW,339,3.0,6.0,64,0.00,,,0.00,0.000000,,2013-07-27 04:22:00,
2013-07-26 22:32:00,55.0,43.0,-100.00,NNW,339,3.0,6.0,64,0.00,,,0.00,0.000000,,2013-07-27 04:32:00,